[Iaude] MPEC C179: 2024 CS5 [a=1.12,e=0.42,i=42.9,H=21.8]
    mpec at cfa.harvard.edu 
    mpec at cfa.harvard.edu
       
    Thu Feb 15 02:13:08 EST 2024
    
    
  
M.P.E.C. 2024-C179                            Issued 2024 February 15, 07:11 UT
     The Minor Planet Electronic Circulars contain information on unusual
         minor planets, routine data on comets and natural satellites,
         and occasional editorial announcements.  They are published
    on behalf of Division F of the International Astronomical Union by the
          Minor Planet Center, Smithsonian Astrophysical Observatory,
                          Cambridge, MA 02138, U.S.A.
			  
             Prepared using the Tamkin Foundation Computer Network
                              MPC at CFA.HARVARD.EDU
            URL https://www.minorplanetcenter.net/    ISSN 1523-6714
                                    2024 CS5                                    
Observations:
     K24C05S  C2024 02 10.36265010 44 25.019+22 20 59.84         21.86GVEC179F52
     K24C05S  C2024 02 10.37626910 44 23.239+22 21 55.04         22.15GVEC179F52
     K24C05S  C2024 02 10.38992410 44 21.446+22 22 50.47         22.05GVEC179F52
     K24C05S  C2024 02 13.56728210 37 12.165+25 57 47.31         21.52GVEC179F52
     K24C05S* C2024 02 13.57778810 37 10.580+25 58 30.62         22.37wXEC179F52
     K24C05S  C2024 02 13.58822710 37 09.027+25 59 12.86         22.06GVEC179F52
     K24C05S  C2024 02 13.59864510 37 07.478+25 59 55.05         21.81wXEC179F52
     K24C05S  C2024 02 13.65807510 36 58.678+26 03 57.28         21.77GVEC179F52
     K24C05S  C2024 02 13.65872210 36 58.583+26 03 59.55         21.90GVEC179F52
     K24C05S KC2024 02 14.17949010 35 44.622+26 39 34.00         22.0 GVEC179H01
     K24C05S KC2024 02 14.18567610 35 43.695+26 39 59.51         21.6 GVEC179H01
     K24C05S KC2024 02 14.19362010 35 42.496+26 40 32.43         21.6 GVEC179H01
     K24C05S KC2024 02 14.20103510 35 41.373+26 41 03.13         21.7 GVEC179H01
     K24C05S  C2024 02 15.26460310 33 01.533+27 53 55.42         21.8 GVEC179H01
     K24C05S  C2024 02 15.27033010 33 00.621+27 54 19.04         21.8 GVEC179H01
     K24C05S  C2024 02 15.28107810 32 58.911+27 55 03.48         22.5 GVEC179H01
     K24C05S  C2024 02 15.28510310 32 58.268+27 55 20.03         21.7 GVEC179H01
Observer details:
F52 Pan-STARRS 2, Haleakala.  Observers J. Herman, T. Lowe, P. Minguez, A.
    Schultz, I. Smith.  Measurers K. Chambers, T. de Boer, J. Fairlamb, H.
    Gao, M. Huber, C.-C. Lin, E. Magnier, Y. Ramanjooloo, R. Wainscoat, R.
    Weryk.  1.8-m Ritchey-Chretien + CCD.
H01 Magdalena Ridge Observatory, Socorro.  Observers W. H. Ryan, E. V. Ryan.
    Measurer W. H. Ryan.  2.4-m f/8.9 Ritchey-Chretien + CCD.
Orbital elements:
2024 CS5                                                 Earth MOID = 0.3556 AU
Epoch 2024 Mar. 31.0 TT = JDT 2460400.5                 MPC                     
M 261.20336              (2000.0)            P               Q                  
n   0.83081967     Peri.  168.65735     +0.66177675     +0.61046964             
a   1.1206368      Node   140.25665     -0.73003245     +0.65682586             
e   0.4183294      Incl.   42.89480     -0.17059939     -0.44261339             
P   1.19           H   21.80          G   0.15           U   8                  
Residuals in seconds of arc
240210 F52  0.0   0.2-    240213 F52  0.1+  0.3-    240214 H01  0.1-  0.1+
240210 F52  0.0   0.1+    240213 F52  0.1+  0.2+    240215 H01  0.1+  0.0
240210 F52  0.1-  0.5+    240213 F52  0.1+  0.2-    240215 H01  0.0   0.1-
240213 F52  0.2+  0.3-    240214 H01  0.0   0.1+    240215 H01  0.0   0.0
240213 F52  0.0   0.2+    240214 H01  0.0   0.0     240215 H01  0.1-  0.0
240213 F52  0.1+  0.1-    240214 H01  0.0   0.1+
Ephemeris:
2024 CS5                 a,e,i = 1.12, 0.42, 43                  q = 0.6518
Date    TT    R. A. (2000) Decl.     Delta      r    Elong.  Phase     V
2024 01 16    11 10 44.3 +01 08 15   0.7776  1.5767   126.7    30.0    23.5
...
2024 01 31    11 01 13.1 +11 47 55   0.6289  1.5545   148.0    19.6    22.7
...
2024 02 08    10 49 05.6 +19 45 37   0.5759  1.5380   159.1    13.2    22.3
...
2024 02 14    10 36 10.2 +26 27 19   0.5526  1.5236   162.6    11.2    22.1
2024 02 15    10 33 41.5 +27 35 47   0.5502  1.5210   162.3    11.4    22.1
2024 02 16    10 31 07.3 +28 44 17   0.5482  1.5184   161.9    11.7    22.1
...
2024 02 22    10 13 55.0 +35 26 50   0.5456  1.5015   155.1    16.1    22.2
...
2024 03 01    09 47 13.0 +43 21 08   0.5643  1.4763   141.8    24.5    22.5
...
2024 03 16    08 56 01.9 +53 05 47   0.6479  1.4201   118.1    38.2    23.1
A. U. Tomatic                (C) Copyright 2024 MPC           M.P.E.C. 2024-C179
    
    
More information about the Iaude
mailing list